Weather History for KPYX - April, 2014

Change the Weather History Date:

Sunday, April 13, 2014

  Actual Average Record
Temperature  
Mean Temperature 51 °F -  
Max Temperature 69 °F - - ()
Min Temperature 31 °F - - ()
Degree Days  
Heating Degree Days 14    
Growing Degree Days 1 (Base 50)    
Moisture  
Dew Point 33 °F    
Average Humidity 52    
Maximum Humidity 87    
Minimum Humidity 20    
Precipitation  
Precipitation 0.00 in - - ()
Sea Level Pressure  
Sea Level Pressure 29.68 in    
Wind  
Wind Speed 18 mph (NW)    
Max Wind Speed 33 mph    
Max Gust Speed 45 mph    
Visibility 9 miles    
Events      
T = Trace of Precipitation, MM = Missing Value Source: NWS Daily Summary

Daily Weather History Graph

Daily Weather History Graph

Search for Another Location

Airport or City:

Trip Planner

Search our weather history database for the weather conditions in past years. The results will help you decide how hot, cold, wet, or windy it might be!

Date:

Astronomy

Apr. 13, 2014 Rise Set
Actual Time 7:12 AM CDT 8:15 PM CDT
Civil Twilight 6:45 AM CDT 8:41 PM CDT
Nautical Twilight 6:14 AM CDT 9:13 PM CDT
Astronomical Twilight 5:41 AM CDT 9:46 PM CDT
Moon 6:57 PM CDT (4/13) 6:09 AM CDT (4/13)
Length of Visible Light 13h 56m
Length of Day
13h 03m
Waxing Gibbous, 97% of the Moon is Illuminated
Apr 13
Waxing Gibbous
Apr 15
Full
Apr 22
Last Quarter
Apr 29
New
May 6
First Quarter

Hourly Weather History & Observations

Time (CDT) Temp. Windchill Dew Point Humidity Pressure Visibility Wind Dir Wind Speed Gust Speed Precip Events Conditions
12:15 AM 67.6 °F - 28.2 °F 23% 29.52 in 10.0 mi SSW 9.2 mph - N/A   Clear
12:35 AM 70.9 °F - 27.9 °F 20% 29.53 in 10.0 mi SSW 13.8 mph - N/A   Clear
12:55 AM 69.6 °F - 27.7 °F 21% 29.52 in 10.0 mi SW 12.7 mph 17.3 mph N/A   Clear
1:15 AM 67.8 °F - 29.1 °F 24% 29.53 in 10.0 mi SW 13.8 mph - N/A   Clear
1:35 AM 67.1 °F - 29.3 °F 24% 29.52 in 10.0 mi SW 11.5 mph 17.3 mph N/A   Clear
1:55 AM 64.6 °F - 30.2 °F 28% 29.51 in 10.0 mi SW 10.4 mph - N/A   Clear
2:15 AM 67.1 °F - 29.8 °F 25% 29.52 in 10.0 mi SW 17.3 mph - N/A   Clear
2:35 AM 66.7 °F - 28.8 °F 24% 29.52 in 10.0 mi WSW 13.8 mph - N/A   Clear
2:55 AM 67.1 °F - 28.4 °F 23% 29.52 in 10.0 mi WSW 15.0 mph - N/A   Clear
3:15 AM 68.4 °F - 28.0 °F 22% 29.51 in 10.0 mi West 15.0 mph - N/A   Clear
3:55 AM 63.9 °F - 29.3 °F 27% 29.51 in 10.0 mi WSW 9.2 mph - N/A   Clear
4:15 AM 62.2 °F - 30.0 °F 30% 29.51 in 10.0 mi WSW 8.1 mph - N/A   Clear
4:35 AM 59.9 °F - 30.4 °F 33% 29.50 in 10.0 mi WSW 6.9 mph - N/A   Scattered Clouds
4:55 AM 57.9 °F - 30.4 °F 35% 29.50 in 10.0 mi West 9.2 mph - N/A   Scattered Clouds
5:15 AM 58.8 °F - 30.9 °F 35% 29.49 in 10.0 mi WSW 9.2 mph - N/A   Clear
5:35 AM 56.5 °F - 31.1 °F 38% 29.49 in 10.0 mi SW 5.8 mph - N/A   Clear
5:55 AM 52.9 °F - 31.8 °F 45% 29.49 in 10.0 mi SSW 10.4 mph - N/A   Clear
6:15 AM 52.0 °F - 32.0 °F 47% 29.49 in 10.0 mi SW 6.9 mph - N/A   Clear
6:35 AM 53.2 °F - 32.0 °F 44% 29.49 in 10.0 mi SW 9.2 mph - N/A   Clear
6:55 AM 51.1 °F - 32.0 °F 48% 29.49 in 10.0 mi SW 10.4 mph - N/A   Clear
7:15 AM 53.2 °F - 32.0 °F 44% 29.52 in 10.0 mi West 12.7 mph - N/A   Clear
7:35 AM 52.9 °F - 33.3 °F 47% 29.52 in 10.0 mi West 6.9 mph - N/A   Clear
7:55 AM 52.7 °F - 33.8 °F 49% 29.53 in 10.0 mi West 6.9 mph - N/A   Clear
8:15 AM 55.4 °F - 34.2 °F 45% 29.53 in 10.0 mi NW 8.1 mph - N/A   Clear
8:35 AM 55.8 °F - 35.6 °F 47% 29.55 in 10.0 mi NW 10.4 mph - N/A   Clear
8:55 AM 57.6 °F - 41.2 °F 54% 29.57 in 10.0 mi NW 12.7 mph - N/A   Clear
9:15 AM 59.2 °F - 45.5 °F 60% 29.58 in 10.0 mi NNW 18.4 mph 23.0 mph N/A   Clear
9:35 AM 57.2 °F - 43.0 °F 59% 29.58 in 10.0 mi NNW 19.6 mph - N/A   Clear
9:55 AM 57.9 °F - 42.1 °F 56% 29.59 in 10.0 mi NNW 21.9 mph 27.6 mph N/A   Clear
10:15 AM 59.2 °F - 42.6 °F 54% 29.59 in 10.0 mi North 25.3 mph 31.1 mph N/A   Clear
10:35 AM 60.1 °F - 42.4 °F 52% 29.60 in 7.0 mi NNW 29.9 mph 34.5 mph N/A   Clear
10:55 AM 61.5 °F - 42.8 °F 50% 29.62 in 5.0 mi North 27.6 mph 39.1 mph N/A   Clear
11:15 AM 62.6 °F - 41.7 °F 46% 29.63 in 7.0 mi NNW 28.8 mph 34.5 mph N/A   Clear
11:35 AM 61.7 °F - 41.2 °F 47% 29.64 in 5.0 mi NNW 31.1 mph 39.1 mph N/A   Clear
11:55 AM 61.3 °F - 43.0 °F 51% 29.66 in 4.0 mi North 31.1 mph 39.1 mph N/A   Scattered Clouds
12:15 PM 59.4 °F - 41.5 °F 52% 29.66 in 2.5 mi North 31.1 mph 41.4 mph N/A   Overcast
12:35 PM 58.1 °F - 41.0 °F 53% 29.67 in 3.0 mi North 32.2 mph 39.1 mph N/A   Overcast
12:55 PM 55.2 °F - 40.3 °F 57% 29.69 in 3.0 mi North 31.1 mph 39.1 mph N/A   Overcast
1:15 PM 53.6 °F - 39.9 °F 60% 29.70 in 3.0 mi North 31.1 mph 41.4 mph N/A   Overcast
1:35 PM 53.6 °F - 39.2 °F 58% 29.71 in 4.0 mi North 32.2 mph 40.3 mph N/A   Overcast
1:55 PM 51.6 °F - 38.5 °F 61% 29.73 in 5.0 mi North 28.8 mph 39.1 mph N/A   Overcast
2:15 PM 51.1 °F - 38.1 °F 61% 29.73 in 7.0 mi North 31.1 mph 36.8 mph N/A   Overcast
2:35 PM 51.8 °F - 37.9 °F 59% 29.73 in 10.0 mi North 27.6 mph 34.5 mph N/A   Overcast
2:55 PM 50.2 °F - 37.0 °F 61% 29.74 in 10.0 mi North 29.9 mph 34.5 mph N/A   Overcast
3:15 PM 50.4 °F - 37.0 °F 60% 29.74 in 10.0 mi North 29.9 mph 35.7 mph N/A   Overcast
3:35 PM 50.5 °F - 36.1 °F 58% 29.75 in 7.0 mi NNW 28.8 mph 36.8 mph N/A   Overcast
3:55 PM 50.0 °F - 35.8 °F 58% 29.75 in 10.0 mi North 27.6 mph 35.7 mph N/A   Overcast
4:15 PM 49.6 °F - 35.1 °F 57% 29.75 in 10.0 mi North 27.6 mph 35.7 mph N/A   Overcast
4:35 PM 49.1 °F - 34.5 °F 57% 29.75 in 10.0 mi North 29.9 mph 38.0 mph N/A   Overcast
4:55 PM 48.2 °F - 33.8 °F 58% 29.76 in 10.0 mi North 28.8 mph 38.0 mph N/A   Overcast
5:15 PM 46.4 °F 37.9 °F 33.1 °F 60% 29.77 in 10.0 mi North 25.3 mph 34.5 mph N/A   Overcast
5:35 PM 45.0 °F 35.6 °F 32.5 °F 62% 29.79 in 10.0 mi North 27.6 mph 34.5 mph N/A   Overcast
5:55 PM 43.7 °F 33.3 °F 31.6 °F 63% 29.82 in 10.0 mi North 31.1 mph - N/A   Overcast
6:15 PM 42.4 °F 32.2 °F 30.6 °F 63% 29.84 in 10.0 mi North 27.6 mph 34.5 mph N/A   Overcast
6:35 PM 41.7 °F 31.2 °F 30.2 °F 64% 29.81 in 7.0 mi North 27.6 mph 39.1 mph N/A   Overcast
6:55 PM 41.0 °F 30.0 °F 29.8 °F 64% 29.82 in 10.0 mi North 28.8 mph 40.3 mph N/A   Overcast
7:15 PM 39.6 °F 28.1 °F 29.5 °F 67% 29.82 in 10.0 mi North 28.8 mph 36.8 mph N/A   Overcast
7:35 PM 38.8 °F 27.3 °F 29.5 °F 69% 29.84 in 10.0 mi North 27.6 mph 38.0 mph N/A   Overcast
7:55 PM 37.6 °F 25.6 °F 27.5 °F 67% 29.86 in 10.0 mi North 27.6 mph 41.4 mph N/A   Overcast
8:15 PM 36.5 °F 24.9 °F 27.1 °F 69% 29.87 in 10.0 mi North 24.2 mph 35.7 mph N/A   Overcast
8:35 PM 36.5 °F 26.3 °F 27.5 °F 70% 29.87 in 10.0 mi North 18.4 mph 31.1 mph N/A   Overcast
8:55 PM 35.8 °F 23.9 °F 27.5 °F 72% 29.89 in 10.0 mi North 24.2 mph 36.8 mph N/A   Overcast
9:15 PM 35.6 °F 22.5 °F 27.9 °F 73% 29.94 in 10.0 mi North 29.9 mph 40.3 mph N/A   Overcast
9:35 PM 35.4 °F 21.6 °F 28.0 °F 75% 29.93 in 10.0 mi North 33.4 mph 39.1 mph N/A   Overcast
9:55 PM 34.5 °F 20.8 °F 27.1 °F 74% 29.94 in 10.0 mi North 31.1 mph 41.4 mph N/A   Overcast
10:15 PM 34.7 °F 21.5 °F 27.1 °F 74% 29.97 in 10.0 mi North 28.8 mph 35.7 mph N/A   Overcast
10:35 PM 34.0 °F 20.3 °F 26.6 °F 74% 30.01 in 7.0 mi North 29.9 mph 41.4 mph N/A   Overcast
10:55 PM 34.0 °F 21.0 °F 26.4 °F 74% 30.00 in 5.0 mi North 26.5 mph 44.9 mph N/A   Overcast
11:15 PM 33.8 °F 19.4 °F 26.2 °F 74% 29.99 in 7.0 mi North 33.4 mph 42.6 mph N/A   Overcast
11:35 PM 32.7 °F 18.4 °F 27.3 °F 81% 30.01 in 5.0 mi North 31.1 mph 41.4 mph N/A   Overcast
11:55 PM 31.8 °F 18.1 °F 28.2 °F 87% 30.01 in 2.5 mi North 26.5 mph 36.8 mph N/A   Overcast